|
NORAD ID: 9595 Int'l Code: 1976-118H
Perigee: 1,471.4 km
Apogee: 1,481.3 km
Inclination: 74.0 °
Period: 115.3 minutes
Semi major axis: 7847 km
Launch date: December 7, 1976
Source: Commonwealth of Independent States (former USSR) (CIS)
Two Line Element Set (TLE):
1 09595U 76118H 13166.18230902 .00000027 00000-0 28693-3 0 7957
2 09595 074.0282 196.5018 0006335 072.9535 352.9923 12.48878001665134
Source:
NASA's NSSDC Master Catalog entry for COSMOS 878
|